Погода Поярково

Поиск расширенной информации на нашем сайте:

Полезная информация:

Новости сайта



02.01.2020
Опубликован Долгосрочный прогноз погоды по городам России и ближнего зарубежья на январь 2020 года.
Карты: Прогноз на январь и февраль 2020 года, Сравнение прогнозируемой аномалии приземной температуры воздуха на январь 2020 года по разным моделям.




Погода Поярково - сегодня

Время (UTC), дата Ветер
(°,м/с) 
Видим.   Явления Облачность Т
(°С)
Тd
(°С)
f(%) Тe
(°С)
Pmin
(гПа)
dP
(гПа)
Po
(мм)
O2
(г/м3)
Тmin Tmax R s Состояние
почвы
21 23.11.20 260 (З) н/о    4/0 верхняя 
[Ci fib]
-6.9 -13.4 60 -8  1019.3  -0.1  753  313           
00 24.11.20 270 (З) 20000 м    10/3 600 м кучево-дожд., средняя 
[Cb cap|Ac trans]
-6.1 -12.6 60 -8  1020.6  1.4  754  312  -13.6      равномерный
сухой снег
100% 
03 24.11.20 270 (З) 20000 м    6/0 средняя 
[Ac trans]
-3.9 -11 58 -5  1020.7  0.2  755  309           
06 24.11.20 230 (ЮЗ) 20000 м    6/0 средняя 
[Ac trans]
-2.9 -10.3 57 -4  1021.3  0.6  755  308           
09 24.11.20 230 (ЮЗ) н/о    10/0 средняя 
[Ac und]
-5 -10.6 65 -5  1021.9  0.5  755  311           
12 24.11.20 тихо ()   н/о    8/0 средняя 
[Ac trans]
-8.6 -11.4 80 -9  1022.9  0.8  756  316    -1.3       
15 24.11.20 290 (З) н/о    3/0 средняя 
[Ac trans]
-11 -12.9 86 -11  1023.5  0.5  756  319           
18 24.11.20 310 (СЗ) н/о    3/0 средняя 
[Ac trans]
-12.7 -14.9 84 -13  1024.6  0.9  757  321           
21 24.11.20 300 (СЗ) н/о    ясно 
-13 -15.4 82 -13  1024.9  0.3  757  322           
00 25.11.20 260 (З) 20000 м    3/0 средняя 
[Ac As]
-13.4 -16.7 76 -13  1026.2  1.2  758  323  -16      равномерный
сухой снег
100% 
03 25.11.20 320 (СЗ) 20000 м    6/0 средняя, верхняя 
[Ac As|Ci fib]
-7.8 -16 52 -11  1025.9  0.1  758  316           
06 25.11.20 320 (СЗ) 20000 м    6/0 верхняя 
[Ci fib]
-8.1 -16.6 50 -11  1026.3  0.3  758  316           
09 25.11.20 290 (З) н/о    1/0 верхняя 
[Ci fib]
-11.7 -16.2 69 -14  1027  0.5  759  321           
12 25.11.20 280 (З) н/о    ясно 
-13.9 -17.1 77 -14  1028.1  0.9  760  324    -6.7       
15 25.11.20 290 (З) н/о    ясно 
-14.4 -19.3 66 -18  1028  0.1  759  325           
18 25.11.20 300 (СЗ) н/о    ясно 
-13.1 -19.2 60 -18  1027.8  -0.2  759  323           
21 25.11.20 280 (З) н/о    ясно 
-12.6 -18 64 -15  1027.4  -0.3  759  322           
00 26.11.20 300 (СЗ) 20000 м    ясно 
-11.8 -17.8 61 -16  1027.6  0.2  759  321  -15.2      равномерный
сухой снег
100% 
03 26.11.20 300 (СЗ) 5-10{10}  20000 м    ясно 
-7.5 -17.1 46 -12  1027.5  0.2  759  316           
06 26.11.20 300 (СЗ) 5{12}  20000 м    1/0 
[]
-7.1 -18.5 40 -11  1027.9  0.4  760  316           
09 26.11.20 280 (З) н/о    ясно 
-11.5 -17.4 62 -11  1029.2  761  321           
12 26.11.20 270 (З) н/о    ясно 
-14.1 -18.2 71 -16  1029.7  0.4  761  325    -6.9       
15 26.11.20 270 (З) н/о    ясно 
-15.3 -19.2 72 -18  1029.2  -0.6  760  326           
18 26.11.20 280 (З) н/о    ясно 
-15.8 -19.8 71 -18  1029.3  760  327           
21 26.11.20 280 (З) н/о    ясно 
-16.3 -20 73 -19  1028.4  -0.9  760  327           
Время (UTC), дата Ветер
(°,м/с) 
Видим.   Явления Облачность Т
(°С)
Тd
(°С)
f(%) Тe
(°С)
Pmin
(гПа)
dP
(гПа)
Po
(мм)
O2
(г/м3)
Тmin Tmax R s Состояние
почвы

Для получения пояснительной информации подведите курсор к названию столбца.

ПОГОДА Поярково - архив

Всё, что Вы хотите узнать о погоде Поярково - удобно и подробно!

Выберите нужную дату (начиная с 1 января 2019* года) и нажмите кнопку "Найти".
Будут отображены архивные сводки погоды по пункту Поярково, начиная с указанной даты.


Отображать данные в формате CSV (для использования в таблицах Excel)


Внимание! Наш архив погоды предназначен исключительно для личного некоммерческого использования в познавательных целях. Если Вам необходимы официальные справки о состоянии погоды (для производственных, юридических, коммерческих и т.п. целей), обращайтесь в органы Росгидромета.

*Примечание: данная дата относится к архиву по метеостанциям СССР (Россия, СНГ, Балтия).
Архив по метеостанциям Зарубежной Европы и Азии (кроме Китая) хранится 10 дней, по другим регионам земного шара (Китай, Африка, Америка, Австралия, Океания) - 1 день.

Поярково - район местоположения метеостанции


Название, широта, долгота, высота метеостанции:
Поярково 49.6°ш. 128.6°д. 115 м над ур. моря [Российская Федерация]

Дополнительная информация

В oтличие oт бoльшинства пoгoдных сайтoв мы публикуем пoдрoбную метеoинфoрмацию в детальнoм прoфессиoнальнoм фoрмате.

Характеристики температуры и влажнoсти вoздуха измеряются на высoте 2 м в тени вдали oт зданий и деревьев.
Скoрoсть ветра измеряется на высoте 10 м (на урoвне рoста челoвека скoрoсть ветра ниже в 1.5-2 раза). Если метеoстанция нахoдится в гoрoде или в лесу, тo скoрoсть ветра занижена на 2-4 м/с пo сравнению с oткрытым местoм. Скoрoсть ветра над акватoриями крупных рек и oзёр, а также на вершинах хoлмoв на 2-5 м/с выше, чем в oбычных услoвиях.
Атмoсфернoе давление в разных тoчках местнoсти мoжет значительнo oтличаться oт давления на метеoстанции, в зависимoсти oт услoвий рельефа (при пoдъёме на 10 м давление пoнижается примернo на 1 мм рт.ст.).